Orbital Elements at Epoch 2459200.5 (2020-Dec-17.0) TDB
Reference: JPL 21 (heliocentric ecliptic J2000)
Element | Value | Uncertainty (1-sigma) | Units |
e | .06622562731235643 | 5.1896e-08 | |
a | 2.485486329754741 | 1.5251e-08 | au |
q | 2.320883438390447 | 1.3072e-07 | au |
i | 12.56450792347969 | 6.3812e-06 | deg |
node | 342.2452166355014 | 1.8717e-05 | deg |
peri | 329.9693286331816 | 4.5727e-05 | deg |
M | 324.8876604585918 | 4.0223e-05 | deg |
tp | 2459340.095931787046 (2021-May-05.59593179) | 0.00015993 | TDB |
period | 1431.249985039339 3.92 | 1.3173e-05 3.607e-08 | d yr |
n | .2515283869086679 | 2.315e-09 | deg/d |
Q | 2.650089221119035 | 1.6261e-08 | au |
|
| | Orbit Determination Parameters
Additional Information
|